TimeEDT,TemperatureF,Dew PointF,Humidity,Sea Level PressureIn,VisibilityMPH,Wind Direction,Wind SpeedMPH,Gust SpeedMPH,PrecipitationIn,Events,Conditions,WindDirDegrees,DateUTC
12:15 AM,33.8,8.6,35,30.02,10.0,Calm,Calm,-,N/A,,Mostly Cloudy,0,2014-03-25 04:15:00
12:35 AM,32.0,10.4,41,30.00,10.0,NNE,4.6,-,N/A,,Overcast,30,2014-03-25 04:35:00
12:55 AM,32.0,8.6,38,30.00,10.0,North,3.5,-,N/A,,Overcast,360,2014-03-25 04:55:00
1:15 AM,32.0,10.4,41,29.99,10.0,Calm,Calm,-,N/A,,Overcast,0,2014-03-25 05:15:00
1:35 AM,32.0,10.4,41,29.97,10.0,Calm,Calm,-,N/A,,Overcast,0,2014-03-25 05:35:00
1:55 AM,32.0,10.4,41,29.97,10.0,Calm,Calm,-,N/A,,Overcast,0,2014-03-25 05:55:00
2:15 AM,32.0,8.6,38,29.96,10.0,Calm,Calm,-,N/A,,Overcast,0,2014-03-25 06:15:00
2:35 AM,32.0,8.6,38,29.95,10.0,Calm,Calm,-,N/A,,Overcast,0,2014-03-25 06:35:00
2:55 AM,32.0,8.6,38,29.93,10.0,NNW,3.5,-,N/A,,Overcast,340,2014-03-25 06:55:00
3:15 AM,32.0,8.6,38,29.92,10.0,Calm,Calm,-,N/A,,Overcast,0,2014-03-25 07:15:00
3:35 AM,32.0,10.4,41,29.91,10.0,Calm,Calm,-,N/A,,Overcast,0,2014-03-25 07:35:00
3:55 AM,32.0,10.4,41,29.90,10.0,NNE,4.6,-,N/A,,Overcast,20,2014-03-25 07:55:00
4:15 AM,32.0,10.4,41,29.89,10.0,NNE,5.8,-,N/A,,Overcast,20,2014-03-25 08:15:00
4:35 AM,32.0,8.6,38,29.89,10.0,North,3.5,-,N/A,,Overcast,350,2014-03-25 08:35:00
4:55 AM,32.0,8.6,38,29.90,7.0,Calm,Calm,-,N/A,,Overcast,0,2014-03-25 08:55:00
5:15 AM,32.0,12.2,44,29.90,10.0,NW,5.8,-,N/A,,Overcast,310,2014-03-25 09:15:00
5:35 AM,32.0,12.2,44,29.90,10.0,NNW,5.8,-,N/A,,Overcast,340,2014-03-25 09:35:00
5:55 AM,32.0,12.2,44,29.90,10.0,NNW,3.5,-,N/A,,Overcast,330,2014-03-25 09:55:00
6:15 AM,32.0,15.8,51,29.90,10.0,NNW,5.8,-,N/A,,Overcast,340,2014-03-25 10:15:00
6:35 AM,30.2,21.2,69,29.90,10.0,NNW,8.1,-,N/A,,Overcast,340,2014-03-25 10:35:00
6:55 AM,28.4,23.0,80,29.90,10.0,NNW,5.8,-,N/A,,Overcast,340,2014-03-25 10:55:00
7:15 AM,28.4,23.0,80,29.90,10.0,NNW,3.5,-,N/A,,Overcast,340,2014-03-25 11:15:00
7:35 AM,28.4,23.0,80,29.89,10.0,NNE,5.8,-,N/A,Snow,Light Snow,30,2014-03-25 11:35:00
7:55 AM,28.4,26.6,93,29.89,10.0,North,3.5,-,N/A,,Overcast,360,2014-03-25 11:55:00
8:15 AM,28.4,26.6,93,29.88,10.0,NNE,4.6,-,N/A,,Overcast,30,2014-03-25 12:15:00
8:35 AM,28.4,26.6,93,29.88,10.0,North,4.6,-,N/A,Snow,Light Snow,350,2014-03-25 12:35:00
8:55 AM,28.4,23.0,80,29.88,2.5,North,4.6,-,N/A,Snow,Light Snow,10,2014-03-25 12:55:00
9:15 AM,30.2,24.8,80,29.88,4.0,NW,4.6,-,N/A,Snow,Light Snow,320,2014-03-25 13:15:00
9:35 AM,30.2,23.0,75,29.87,2.0,Calm,Calm,-,N/A,Snow,Light Snow,0,2014-03-25 13:35:00
9:55 AM,30.2,24.8,80,29.87,2.5,Calm,Calm,-,N/A,Snow,Light Snow,0,2014-03-25 13:55:00
10:15 AM,30.2,24.8,80,29.87,10.0,Calm,Calm,-,N/A,Snow,Light Snow,0,2014-03-25 14:15:00
10:35 AM,32.0,26.6,80,29.87,7.0,Calm,Calm,-,N/A,Snow,Light Snow,0,2014-03-25 14:35:00
10:55 AM,32.0,26.6,80,29.87,3.0,West,5.8,-,N/A,Snow,Light Snow,270,2014-03-25 14:55:00
11:15 AM,32.0,26.6,80,29.87,1.8,WNW,5.8,-,N/A,Snow,Light Snow,290,2014-03-25 15:15:00
11:35 AM,33.8,26.6,75,29.87,4.0,SW,5.8,-,N/A,,Haze,230,2014-03-25 15:35:00
11:55 AM,32.0,26.6,80,29.87,1.8,NW,6.9,-,N/A,Snow,Light Snow,320,2014-03-25 15:55:00
12:15 PM,32.0,26.6,80,29.87,2.0,WNW,10.4,-,N/A,Snow,Light Snow,300,2014-03-25 16:15:00
12:35 PM,32.0,28.4,87,29.86,2.0,West,9.2,-,N/A,Snow,Light Snow,280,2014-03-25 16:35:00
12:55 PM,32.0,26.6,80,29.86,4.0,West,10.4,-,N/A,Snow,Light Snow,270,2014-03-25 16:55:00
1:15 PM,30.2,26.6,86,29.86,0.5,NW,9.2,-,N/A,Snow,Light Snow,310,2014-03-25 17:15:00
1:35 PM,32.0,24.8,75,29.85,10.0,WNW,9.2,16.1,N/A,,Overcast,300,2014-03-25 17:35:00
2:15 PM,30.2,28.4,93,29.85,0.5,WNW,9.2,-,N/A,Snow,Light Snow,290,2014-03-25 18:15:00
2:35 PM,32.0,26.6,80,29.85,10.0,NW,11.5,19.6,N/A,,Overcast,310,2014-03-25 18:35:00
2:55 PM,30.2,26.6,86,29.86,0.2,WNW,9.2,20.7,N/A,Snow,Snow,300,2014-03-25 18:55:00
3:15 PM,32.0,23.0,69,29.86,7.0,NW,10.4,18.4,0.01,,Overcast,320,2014-03-25 19:15:00
3:35 PM,32.0,24.8,75,29.86,0.5,WNW,12.7,19.6,0.01,Snow,Light Snow,300,2014-03-25 19:35:00
3:55 PM,28.4,26.6,93,29.87,0.2,NW,12.7,25.3,0.01,Snow,Snow,310,2014-03-25 19:55:00
4:15 PM,30.2,23.0,75,29.87,10.0,West,13.8,18.4,N/A,,Overcast,280,2014-03-25 20:15:00
4:35 PM,30.2,26.6,86,29.88,0.2,WNW,10.4,26.5,N/A,Snow,Snow,300,2014-03-25 20:35:00
4:55 PM,30.2,23.0,75,29.89,3.0,WNW,9.2,-,N/A,Snow,Light Snow,300,2014-03-25 20:55:00
5:15 PM,30.2,23.0,75,29.89,10.0,NW,6.9,16.1,N/A,,Overcast,320,2014-03-25 21:15:00
5:35 PM,32.0,21.2,64,29.90,3.0,WNW,13.8,21.9,N/A,Snow,Light Snow,300,2014-03-25 21:35:00
5:55 PM,32.0,21.2,64,29.90,10.0,West,10.4,18.4,N/A,,Overcast,280,2014-03-25 21:55:00
6:15 PM,28.4,24.8,86,29.91,0.5,NW,9.2,-,0.01,Snow,Light Snow,320,2014-03-25 22:15:00
6:35 PM,30.2,24.8,80,29.91,4.0,NW,9.2,-,0.01,Snow,Light Snow,310,2014-03-25 22:35:00
6:55 PM,30.2,23.0,75,29.93,1.5,NNW,17.3,23.0,0.01,Snow,Light Snow,330,2014-03-25 22:55:00
7:15 PM,28.4,24.8,86,29.95,0.5,WNW,10.4,16.1,N/A,Snow,Light Snow,300,2014-03-25 23:15:00
7:35 PM,28.4,23.0,80,29.95,0.2,NW,16.1,24.2,N/A,Snow,Snow,310,2014-03-25 23:35:00
7:55 PM,26.6,26.6,100,29.96,0.5,WNW,11.5,19.6,N/A,Snow,Light Snow,300,2014-03-25 23:55:00
8:15 PM,26.6,21.2,80,29.98,2.5,NW,15.0,23.0,N/A,Snow,Light Snow,310,2014-03-26 00:15:00
8:35 PM,26.6,19.4,74,29.98,10.0,NW,10.4,21.9,N/A,Snow,Light Snow,310,2014-03-26 00:35:00
8:55 PM,26.6,19.4,74,29.99,5.0,WNW,9.2,23.0,N/A,Snow,Light Snow,290,2014-03-26 00:55:00
9:15 PM,26.6,19.4,74,30.01,0.8,NW,13.8,25.3,N/A,Snow,Snow,310,2014-03-26 01:15:00
9:35 PM,24.8,19.4,80,30.02,7.0,NW,12.7,18.4,N/A,Snow,Light Snow,310,2014-03-26 01:35:00
9:55 PM,26.6,19.4,74,30.02,10.0,NW,10.4,18.4,N/A,Snow,Light Snow,310,2014-03-26 01:55:00
10:15 PM,26.6,17.6,69,30.03,10.0,WNW,8.1,18.4,N/A,,Overcast,300,2014-03-26 02:15:00
10:35 PM,26.6,17.6,69,30.04,10.0,WNW,9.2,-,N/A,,Overcast,300,2014-03-26 02:35:00
10:55 PM,26.6,17.6,69,30.04,10.0,NW,9.2,16.1,N/A,,Overcast,310,2014-03-26 02:55:00
11:15 PM,24.8,19.4,80,30.05,5.0,WNW,11.5,17.3,N/A,Snow,Light Snow,290,2014-03-26 03:15:00
11:35 PM,24.8,14.0,64,30.05,10.0,WNW,9.2,17.3,N/A,,Overcast,300,2014-03-26 03:35:00
11:55 PM,24.8,14.0,64,30.05,10.0,NW,11.5,16.1,N/A,,Overcast,310,2014-03-26 03:55:00